02/05/2024 10:30:00,0.553
02/05/2024 10:45:00,0.549
02/05/2024 11:00:00,0.547
02/05/2024 11:15:00,0.546
02/05/2024 11:30:00,0.547
02/05/2024 11:45:00,0.551
02/05/2024 12:00:00,0.555
02/05/2024 12:15:00,0.557
02/05/2024 12:30:00,0.559
02/05/2024 12:45:00,0.559
02/05/2024 13:00:00,0.562
02/05/2024 13:15:00,0.564
02/05/2024 13:30:00,0.566
02/05/2024 13:45:00,0.566
02/05/2024 14:00:00,0.566
02/05/2024 14:15:00,0.562
02/05/2024 14:30:00,0.558
02/05/2024 14:45:00,0.553
02/05/2024 15:00:00,0.55
02/05/2024 15:15:00,0.548
02/05/2024 15:30:00,0.552
02/05/2024 15:45:00,0.562
02/05/2024 16:00:00,0.567
02/05/2024 16:15:00,0.569
02/05/2024 16:30:00,0.57
02/05/2024 16:45:00,0.571
02/05/2024 17:00:00,0.571
02/05/2024 17:15:00,0.57
02/05/2024 17:30:00,0.57
02/05/2024 17:45:00,0.568
02/05/2024 18:00:00,0.569
02/05/2024 18:15:00,0.564
02/05/2024 18:30:00,0.558
02/05/2024 18:45:00,0.553
02/05/2024 19:00:00,0.55
02/05/2024 19:15:00,0.549
02/05/2024 19:30:00,0.55
02/05/2024 19:45:00,0.557
02/05/2024 20:00:00,0.56
02/05/2024 20:15:00,0.56
02/05/2024 20:30:00,0.56
02/05/2024 20:45:00,0.559
02/05/2024 21:00:00,0.559
02/05/2024 21:15:00,0.558
02/05/2024 21:30:00,0.558
02/05/2024 21:45:00,0.558
02/05/2024 22:00:00,0.558
02/05/2024 22:15:00,0.558
02/05/2024 22:30:00,0.558
02/05/2024 22:45:00,0.558
02/05/2024 23:00:00,0.559
02/05/2024 23:15:00,0.559
02/05/2024 23:30:00,0.56
02/05/2024 23:45:00,0.561
03/05/2024 00:00:00,0.561
03/05/2024 00:15:00,0.562
03/05/2024 00:30:00,0.562
03/05/2024 00:45:00,0.562
03/05/2024 01:00:00,0.562
03/05/2024 01:15:00,0.563
03/05/2024 01:30:00,0.564
03/05/2024 01:45:00,0.564
03/05/2024 02:00:00,0.564
03/05/2024 02:15:00,0.565
03/05/2024 02:30:00,0.565
03/05/2024 02:45:00,0.565
03/05/2024 03:00:00,0.565
03/05/2024 03:15:00,0.566
03/05/2024 03:30:00,0.566
03/05/2024 03:45:00,0.566
03/05/2024 04:00:00,0.567
03/05/2024 04:15:00,0.568
03/05/2024 04:30:00,0.569
03/05/2024 04:45:00,0.57
03/05/2024 05:00:00,0.57
03/05/2024 05:15:00,0.57
03/05/2024 05:30:00,0.57
03/05/2024 05:45:00,0.57
03/05/2024 06:00:00,0.569
03/05/2024 06:15:00,0.568
03/05/2024 06:30:00,0.566
03/05/2024 06:45:00,0.566
03/05/2024 07:00:00,0.565
03/05/2024 07:15:00,0.564
03/05/2024 07:30:00,0.564
03/05/2024 07:45:00,0.562
03/05/2024 08:00:00,0.562
03/05/2024 08:15:00,0.56
03/05/2024 08:30:00,0.559
03/05/2024 08:45:00,0.558
03/05/2024 09:00:00,0.558
03/05/2024 09:15:00,0.558
03/05/2024 09:30:00,0.556
03/05/2024 09:45:00,0.556
03/05/2024 10:00:00,0.555
03/05/2024 10:15:00,0.555
03/05/2024 10:30:00,0.551
03/05/2024 10:45:00,0.548
03/05/2024 11:00:00,0.546
03/05/2024 11:15:00,0.544
03/05/2024 11:30:00,0.548
03/05/2024 11:45:00,0.552
03/05/2024 12:00:00,0.558
03/05/2024 12:15:00,0.557
03/05/2024 12:30:00,0.558
03/05/2024 12:45:00,0.56
03/05/2024 13:00:00,0.56
03/05/2024 13:15:00,0.562
03/05/2024 13:30:00,0.562
03/05/2024 13:45:00,0.562
03/05/2024 14:00:00,0.562
03/05/2024 14:15:00,0.562
03/05/2024 14:30:00,0.556
03/05/2024 14:45:00,0.552
03/05/2024 15:00:00,0.548
03/05/2024 15:15:00,0.547
03/05/2024 15:30:00,0.55
03/05/2024 15:45:00,0.558
03/05/2024 16:00:00,0.564
03/05/2024 16:15:00,0.566
03/05/2024 16:30:00,0.567
03/05/2024 16:45:00,0.567
03/05/2024 17:00:00,0.568
03/05/2024 17:15:00,0.568
03/05/2024 17:30:00,0.567
03/05/2024 17:45:00,0.567
03/05/2024 18:00:00,0.567
03/05/2024 18:15:00,0.564
03/05/2024 18:30:00,0.558
03/05/2024 18:45:00,0.551
03/05/2024 19:00:00,0.548
03/05/2024 19:15:00,0.547
03/05/2024 19:30:00,0.549
03/05/2024 19:45:00,0.556
03/05/2024 20:00:00,0.559
03/05/2024 20:15:00,0.561
03/05/2024 20:30:00,0.56
03/05/2024 20:45:00,0.561
03/05/2024 21:00:00,0.561
03/05/2024 21:15:00,0.559
03/05/2024 21:30:00,0.559
03/05/2024 21:45:00,0.559
03/05/2024 22:00:00,0.558
03/05/2024 22:15:00,0.558
03/05/2024 22:30:00,0.558
03/05/2024 22:45:00,0.558
03/05/2024 23:00:00,0.557
03/05/2024 23:15:00,0.556
03/05/2024 23:30:00,0.556
03/05/2024 23:45:00,0.556
04/05/2024 00:00:00,0.556
04/05/2024 00:15:00,0.557
04/05/2024 00:30:00,0.557
04/05/2024 00:45:00,0.558
04/05/2024 01:00:00,0.558
04/05/2024 01:15:00,0.558
04/05/2024 01:30:00,0.559
04/05/2024 01:45:00,0.56
04/05/2024 02:00:00,0.561
04/05/2024 02:15:00,0.562
04/05/2024 02:30:00,0.562
04/05/2024 02:45:00,0.562
04/05/2024 03:00:00,0.562
04/05/2024 03:15:00,0.562
04/05/2024 03:30:00,0.562
04/05/2024 03:45:00,0.562
04/05/2024 04:00:00,0.562
04/05/2024 04:15:00,0.562
04/05/2024 04:30:00,0.562
04/05/2024 04:45:00,0.562
04/05/2024 05:00:00,0.564
04/05/2024 05:15:00,0.564
04/05/2024 05:30:00,0.565
04/05/2024 05:45:00,0.565
04/05/2024 06:00:00,0.566
04/05/2024 06:15:00,0.566
04/05/2024 06:30:00,0.566
04/05/2024 06:45:00,0.565
04/05/2024 07:00:00,0.564
04/05/2024 07:15:00,0.564
04/05/2024 07:30:00,0.562
04/05/2024 07:45:00,0.562
04/05/2024 08:00:00,0.561
04/05/2024 08:15:00,0.56
04/05/2024 08:30:00,0.559
04/05/2024 08:45:00,0.558
04/05/2024 09:00:00,0.558
04/05/2024 09:15:00,0.557
04/05/2024 09:30:00,0.557
04/05/2024 09:45:00,0.556
04/05/2024 10:00:00,0.556
04/05/2024 10:15:00,0.554
04/05/2024 10:30:00,0.551
04/05/2024 10:45:00,0.548
04/05/2024 11:00:00,0.546
04/05/2024 11:15:00,0.544
04/05/2024 11:30:00,0.547
04/05/2024 11:45:00,0.552
04/05/2024 12:00:00,0.556
04/05/2024 12:15:00,0.558
04/05/2024 12:30:00,0.558
04/05/2024 12:45:00,0.559
04/05/2024 13:00:00,0.56
04/05/2024 13:15:00,0.561
04/05/2024 13:30:00,0.562
04/05/2024 13:45:00,0.562
04/05/2024 14:00:00,0.562
04/05/2024 14:15:00,0.561
04/05/2024 14:30:00,0.556
04/05/2024 14:45:00,0.551
04/05/2024 15:00:00,0.548
04/05/2024 15:15:00,0.547
04/05/2024 15:30:00,0.551
04/05/2024 15:45:00,0.56
04/05/2024 16:00:00,0.566
04/05/2024 16:15:00,0.567
04/05/2024 16:30:00,0.568
04/05/2024 16:45:00,0.569
04/05/2024 17:00:00,0.569
04/05/2024 17:15:00,0.569
04/05/2024 17:30:00,0.569
04/05/2024 17:45:00,0.568
04/05/2024 18:00:00,0.567
04/05/2024 18:15:00,0.564
04/05/2024 18:30:00,0.558
04/05/2024 18:45:00,0.552
04/05/2024 19:00:00,0.549
04/05/2024 19:15:00,0.547
04/05/2024 19:30:00,0.55
04/05/2024 19:45:00,0.556
04/05/2024 20:00:00,0.559
04/05/2024 20:15:00,0.56
04/05/2024 20:30:00,0.56
04/05/2024 20:45:00,0.559
04/05/2024 21:00:00,0.559
04/05/2024 21:15:00,0.559
04/05/2024 21:30:00,0.559
04/05/2024 21:45:00,0.559
04/05/2024 22:00:00,0.558
04/05/2024 22:15:00,0.558
04/05/2024 22:30:00,0.558
04/05/2024 22:45:00,0.558
04/05/2024 23:00:00,0.558
04/05/2024 23:15:00,0.558
04/05/2024 23:30:00,0.558
04/05/2024 23:45:00,0.559
05/05/2024 00:00:00,0.559
05/05/2024 00:15:00,0.56
05/05/2024 00:30:00,0.561
05/05/2024 00:45:00,0.562
05/05/2024 01:00:00,0.564
05/05/2024 01:15:00,0.564
05/05/2024 01:30:00,0.566
05/05/2024 01:45:00,0.566
05/05/2024 02:00:00,0.566
05/05/2024 02:15:00,0.566
05/05/2024 02:30:00,0.566
05/05/2024 02:45:00,0.566
05/05/2024 03:00:00,0.566
05/05/2024 03:15:00,0.566
05/05/2024 03:30:00,0.566
05/05/2024 03:45:00,0.565
05/05/2024 04:00:00,0.566
05/05/2024 04:15:00,0.573
05/05/2024 04:30:00,0.581
05/05/2024 04:45:00,0.584
05/05/2024 05:00:00,0.586
05/05/2024 05:15:00,0.587
05/05/2024 05:30:00,0.588
05/05/2024 05:45:00,0.588
05/05/2024 06:00:00,0.588
05/05/2024 06:15:00,0.588
05/05/2024 06:30:00,0.587
05/05/2024 06:45:00,0.587
05/05/2024 07:00:00,0.586
05/05/2024 07:15:00,0.585
05/05/2024 07:30:00,0.584
05/05/2024 07:45:00,0.583
05/05/2024 08:00:00,0.582
05/05/2024 08:15:00,0.582
05/05/2024 08:30:00,0.581
05/05/2024 08:45:00,0.58
05/05/2024 09:00:00,0.579
05/05/2024 09:15:00,0.579
05/05/2024 09:30:00,0.578
05/05/2024 09:45:00,0.577
05/05/2024 10:00:00,0.577
05/05/2024 10:15:00,0.574
05/05/2024 10:30:00,0.57
05/05/2024 10:45:00,0.569
05/05/2024 11:00:00,0.572
05/05/2024 11:15:00,0.574
05/05/2024 11:30:00,0.569
05/05/2024 11:45:00,0.564
05/05/2024 12:00:00,0.562
05/05/2024 12:15:00,0.561
05/05/2024 12:30:00,0.56
05/05/2024 12:45:00,0.561
05/05/2024 13:00:00,0.561
05/05/2024 13:15:00,0.561
05/05/2024 13:30:00,0.562
05/05/2024 13:45:00,0.562
05/05/2024 14:00:00,0.562
05/05/2024 14:15:00,0.561
05/05/2024 14:30:00,0.558
05/05/2024 14:45:00,0.556
05/05/2024 15:00:00,0.554
05/05/2024 15:15:00,0.554
05/05/2024 15:30:00,0.558
05/05/2024 15:45:00,0.568
05/05/2024 16:00:00,0.576
05/05/2024 16:15:00,0.581
05/05/2024 16:30:00,0.584
05/05/2024 16:45:00,0.586
05/05/2024 17:00:00,0.59
05/05/2024 17:15:00,0.595
05/05/2024 17:30:00,0.618
05/05/2024 17:45:00,0.632
05/05/2024 18:00:00,0.632
05/05/2024 18:15:00,0.625
05/05/2024 18:30:00,0.618
05/05/2024 18:45:00,0.614
05/05/2024 19:00:00,0.609
05/05/2024 19:15:00,0.608
05/05/2024 19:30:00,0.609
05/05/2024 19:45:00,0.61
05/05/2024 20:00:00,0.608
05/05/2024 20:15:00,0.605
05/05/2024 20:30:00,0.604
05/05/2024 20:45:00,0.601
05/05/2024 21:00:00,0.599
05/05/2024 21:15:00,0.597
05/05/2024 21:30:00,0.595
05/05/2024 21:45:00,0.592
05/05/2024 22:00:00,0.591
05/05/2024 22:15:00,0.589
05/05/2024 22:30:00,0.588
05/05/2024 22:45:00,0.586
05/05/2024 23:00:00,0.586
05/05/2024 23:15:00,0.584
05/05/2024 23:30:00,0.584
05/05/2024 23:45:00,0.584
06/05/2024 00:00:00,0.584
06/05/2024 00:15:00,0.584
06/05/2024 00:30:00,0.583
06/05/2024 00:45:00,0.583
06/05/2024 01:00:00,0.582
06/05/2024 01:15:00,0.582
06/05/2024 01:30:00,0.582
06/05/2024 01:45:00,0.582
06/05/2024 02:00:00,0.582
06/05/2024 02:15:00,0.582
06/05/2024 02:30:00,0.582
06/05/2024 02:45:00,0.582
06/05/2024 03:00:00,0.581
06/05/2024 03:15:00,0.58
06/05/2024 03:30:00,0.58
06/05/2024 03:45:00,0.579
06/05/2024 04:00:00,0.578
06/05/2024 04:15:00,0.577
06/05/2024 04:30:00,0.577
06/05/2024 04:45:00,0.577
06/05/2024 05:00:00,0.577
06/05/2024 05:15:00,0.577
06/05/2024 05:30:00,0.578
06/05/2024 05:45:00,0.578
06/05/2024 06:00:00,0.578
06/05/2024 06:15:00,0.578
06/05/2024 06:30:00,0.577
06/05/2024 06:45:00,0.577
06/05/2024 07:00:00,0.576
06/05/2024 07:15:00,0.574
06/05/2024 07:30:00,0.574
06/05/2024 07:45:00,0.573
06/05/2024 08:00:00,0.572
06/05/2024 08:15:00,0.571
06/05/2024 08:30:00,0.57
06/05/2024 08:45:00,0.569
06/05/2024 09:00:00,0.568
06/05/2024 09:15:00,0.567
06/05/2024 09:30:00,0.566
06/05/2024 09:45:00,0.566
06/05/2024 10:00:00,0.566
06/05/2024 10:15:00,0.564
06/05/2024 10:30:00,0.561
06/05/2024 10:45:00,0.558
06/05/2024 11:00:00,0.556
06/05/2024 11:15:00,0.555
06/05/2024 11:30:00,0.557
06/05/2024 11:45:00,0.563
06/05/2024 12:00:00,0.567
06/05/2024 12:15:00,0.57
06/05/2024 12:30:00,0.571
06/05/2024 12:45:00,0.571
06/05/2024 13:00:00,0.571
06/05/2024 13:15:00,0.572
06/05/2024 13:30:00,0.572
06/05/2024 13:45:00,0.571
06/05/2024 14:00:00,0.571
06/05/2024 14:15:00,0.568
06/05/2024 14:30:00,0.563
06/05/2024 14:45:00,0.558
06/05/2024 15:00:00,0.556
06/05/2024 15:15:00,0.555
06/05/2024 15:30:00,0.558
06/05/2024 15:45:00,0.566
06/05/2024 16:00:00,0.572
06/05/2024 16:15:00,0.573
06/05/2024 16:30:00,0.574
06/05/2024 16:45:00,0.574
06/05/2024 17:00:00,0.574
06/05/2024 17:15:00,0.574
06/05/2024 17:30:00,0.574
06/05/2024 17:45:00,0.573
06/05/2024 18:00:00,0.572
06/05/2024 18:15:00,0.569
06/05/2024 18:30:00,0.563
06/05/2024 18:45:00,0.558
06/05/2024 19:00:00,0.555
06/05/2024 19:15:00,0.553
06/05/2024 19:30:00,0.555
06/05/2024 19:45:00,0.559
06/05/2024 20:00:00,0.562
06/05/2024 20:15:00,0.562
06/05/2024 20:30:00,0.562
06/05/2024 20:45:00,0.561
06/05/2024 21:00:00,0.56
06/05/2024 21:15:00,0.559
06/05/2024 21:30:00,0.559
06/05/2024 21:45:00,0.559
06/05/2024 22:00:00,0.559
06/05/2024 22:15:00,0.559
06/05/2024 22:30:00,0.56
06/05/2024 22:45:00,0.561
06/05/2024 23:00:00,0.561
06/05/2024 23:15:00,0.562
06/05/2024 23:30:00,0.562
06/05/2024 23:45:00,0.563
07/05/2024 00:00:00,0.564
07/05/2024 00:15:00,0.564
07/05/2024 00:30:00,0.564
07/05/2024 00:45:00,0.565
07/05/2024 01:00:00,0.566
07/05/2024 01:15:00,0.566
07/05/2024 01:30:00,0.566
07/05/2024 01:45:00,0.566
07/05/2024 02:00:00,0.567
07/05/2024 02:15:00,0.567
07/05/2024 02:30:00,0.567
07/05/2024 02:45:00,0.568
07/05/2024 03:00:00,0.568
07/05/2024 03:15:00,0.568
07/05/2024 03:30:00,0.568
07/05/2024 03:45:00,0.568
07/05/2024 04:00:00,0.568
07/05/2024 04:15:00,0.569
07/05/2024 04:30:00,0.57
07/05/2024 04:45:00,0.57
07/05/2024 05:00:00,0.571
07/05/2024 05:15:00,0.571
07/05/2024 05:30:00,0.572
07/05/2024 05:45:00,0.572
07/05/2024 06:00:00,0.572
07/05/2024 06:15:00,0.572
07/05/2024 06:30:00,0.572
07/05/2024 06:45:00,0.572
07/05/2024 07:00:00,0.571
07/05/2024 07:15:00,0.57
07/05/2024 07:30:00,0.569
07/05/2024 07:45:00,0.568
07/05/2024 08:00:00,0.567
07/05/2024 08:15:00,0.566
07/05/2024 08:30:00,0.566
07/05/2024 08:45:00,0.565
07/05/2024 09:00:00,0.564
07/05/2024 09:15:00,0.563
07/05/2024 09:30:00,0.562
07/05/2024 09:45:00,0.562
